TimeEDT,TemperatureF,Dew PointF,Humidity,Sea Level PressureIn,VisibilityMPH,Wind Direction,Wind SpeedMPH,Gust SpeedMPH,PrecipitationIn,Events,Conditions,WindDirDegrees,DateUTC
12:01 AM,75.2,75.2,100,30.02,7.0,Calm,Calm,-,N/A,,Overcast,0,2012-08-08 04:01:00
12:10 AM,73.4,73.4,100,30.03,7.0,Calm,Calm,-,N/A,Rain,Light Rain,0,2012-08-08 04:10:00
12:27 AM,73.4,73.4,100,30.02,6.0,Calm,Calm,-,N/A,,Mostly Cloudy,0,2012-08-08 04:27:00
12:29 AM,73.4,73.4,100,30.02,6.0,Calm,Calm,-,N/A,,Scattered Clouds,0,2012-08-08 04:29:00
12:55 AM,74.1,74.1,100,30.02,6.0,Calm,Calm,-,0.00,,Mostly Cloudy,0,2012-08-08 04:55:00
1:55 AM,74.1,74.1,100,30.00,7.0,Calm,Calm,-,N/A,,Mostly Cloudy,0,2012-08-08 05:55:00
2:53 AM,73.4,73.4,100,29.99,7.0,Calm,Calm,-,N/A,,Overcast,0,2012-08-08 06:53:00
2:55 AM,74.1,74.1,100,29.99,7.0,Calm,Calm,-,N/A,,Overcast,0,2012-08-08 06:55:00
2:58 AM,73.4,73.4,100,29.99,7.0,Calm,Calm,-,N/A,,Light Drizzle,0,2012-08-08 06:58:00
3:08 AM,73.4,73.4,100,29.99,7.0,Calm,Calm,-,N/A,,Overcast,0,2012-08-08 07:08:00
3:12 AM,73.4,73.4,100,29.99,7.0,Calm,Calm,-,N/A,,Overcast,0,2012-08-08 07:12:00
3:50 AM,73.4,73.4,100,29.98,2.5,Calm,Calm,-,N/A,,Overcast,0,2012-08-08 07:50:00
3:53 AM,73.4,73.4,100,29.98,1.8,Calm,Calm,-,N/A,,Overcast,0,2012-08-08 07:53:00
3:54 AM,73.4,73.4,100,29.98,1.5,Calm,Calm,-,N/A,,Overcast,0,2012-08-08 07:54:00
3:55 AM,73.8,73.8,100,29.98,1.2,Calm,Calm,-,0.00,,Overcast,0,2012-08-08 07:55:00
3:57 AM,73.4,73.4,100,29.98,1.0,Calm,Calm,-,N/A,,Mist,0,2012-08-08 07:57:00
4:02 AM,73.4,73.4,100,29.99,1.2,Calm,Calm,-,N/A,,Mostly Cloudy,0,2012-08-08 08:02:00
4:04 AM,73.4,73.4,100,29.99,1.2,Calm,Calm,-,N/A,Rain,Light Rain,0,2012-08-08 08:04:00
4:05 AM,73.4,73.4,100,29.99,1.5,Calm,Calm,-,N/A,,Light Drizzle,0,2012-08-08 08:05:00
4:06 AM,73.4,73.4,100,29.99,1.8,Calm,Calm,-,N/A,,Light Drizzle,0,2012-08-08 08:06:00
4:07 AM,73.4,73.4,100,29.99,2.0,Calm,Calm,-,N/A,Rain,Light Rain,0,2012-08-08 08:07:00
4:10 AM,73.4,73.4,100,29.99,3.0,Calm,Calm,-,N/A,Rain,Light Rain,0,2012-08-08 08:10:00
4:15 AM,73.4,73.4,100,29.99,4.0,Calm,Calm,-,N/A,Rain,Light Rain,0,2012-08-08 08:15:00
4:18 AM,73.4,73.4,100,29.99,4.0,Calm,Calm,-,N/A,Rain,Light Rain,0,2012-08-08 08:18:00
4:21 AM,73.4,73.4,100,29.99,5.0,Calm,Calm,-,N/A,,Mostly Cloudy,0,2012-08-08 08:21:00
4:28 AM,73.4,73.4,100,29.99,6.0,Calm,Calm,-,N/A,,Mostly Cloudy,0,2012-08-08 08:28:00
4:32 AM,73.4,73.4,100,29.99,5.0,Calm,Calm,-,N/A,,Mostly Cloudy,0,2012-08-08 08:32:00
4:42 AM,73.4,73.4,100,30.00,3.0,Calm,Calm,-,N/A,,Mostly Cloudy,0,2012-08-08 08:42:00
4:45 AM,73.4,73.4,100,30.00,3.0,Calm,Calm,-,N/A,,Overcast,0,2012-08-08 08:45:00
4:55 AM,73.6,73.6,100,30.00,4.0,Calm,Calm,-,0.00,,Overcast,0,2012-08-08 08:55:00
4:59 AM,73.4,73.4,100,30.00,4.0,Calm,Calm,-,N/A,,Overcast,0,2012-08-08 08:59:00
5:06 AM,73.4,73.4,100,30.00,5.0,Calm,Calm,-,N/A,,Overcast,0,2012-08-08 09:06:00
5:12 AM,73.4,73.4,100,30.00,5.0,Calm,Calm,-,N/A,,Overcast,0,2012-08-08 09:12:00
5:14 AM,73.4,73.4,100,30.00,5.0,Calm,Calm,-,N/A,,Light Drizzle,0,2012-08-08 09:14:00
5:17 AM,73.4,73.4,100,30.00,6.0,Calm,Calm,-,N/A,,Light Drizzle,0,2012-08-08 09:17:00
5:32 AM,73.4,73.4,100,29.99,5.0,Calm,Calm,-,N/A,,Overcast,0,2012-08-08 09:32:00
5:55 AM,74.1,74.1,100,30.00,6.0,Calm,Calm,-,0.00,,Overcast,0,2012-08-08 09:55:00
5:57 AM,73.4,73.4,100,30.00,6.0,Calm,Calm,-,N/A,,Overcast,0,2012-08-08 09:57:00
5:59 AM,73.4,73.4,100,30.00,6.0,Calm,Calm,-,N/A,,Light Drizzle,0,2012-08-08 09:59:00
6:09 AM,73.4,73.4,100,29.99,6.0,Calm,Calm,-,N/A,,Light Drizzle,0,2012-08-08 10:09:00
6:17 AM,73.4,73.4,100,30.00,5.0,Calm,Calm,-,N/A,Rain,Light Rain,0,2012-08-08 10:17:00
6:26 AM,73.4,73.4,100,30.00,4.0,Calm,Calm,-,N/A,Rain,Rain,0,2012-08-08 10:26:00
6:30 AM,73.4,73.4,100,30.00,4.0,Calm,Calm,-,N/A,Rain,Rain,0,2012-08-08 10:30:00
6:38 AM,73.4,73.4,100,30.00,5.0,Calm,Calm,-,N/A,,Overcast,0,2012-08-08 10:38:00
6:42 AM,73.4,73.4,100,30.00,5.0,Calm,Calm,-,N/A,,Light Drizzle,0,2012-08-08 10:42:00
6:44 AM,73.4,73.4,100,30.00,5.0,Calm,Calm,-,N/A,,Light Drizzle,0,2012-08-08 10:44:00
6:53 AM,73.4,73.4,100,30.01,6.0,Calm,Calm,-,N/A,,Light Drizzle,0,2012-08-08 10:53:00
6:54 AM,73.4,73.4,100,30.00,6.0,Calm,Calm,-,N/A,,Light Drizzle,0,2012-08-08 10:54:00
6:55 AM,74.3,74.3,100,30.00,6.0,Calm,Calm,-,0.02,,Light Drizzle,0,2012-08-08 10:55:00
6:58 AM,73.4,73.4,100,30.00,5.0,Calm,Calm,-,N/A,,Light Drizzle,0,2012-08-08 10:58:00
7:11 AM,75.2,75.2,100,30.01,5.0,Calm,Calm,-,N/A,Rain,Light Rain,0,2012-08-08 11:11:00
7:15 AM,75.2,75.2,100,30.01,2.5,Calm,Calm,-,N/A,Rain,Light Rain,0,2012-08-08 11:15:00
7:24 AM,75.2,75.2,100,30.00,3.0,Calm,Calm,-,N/A,Rain,Light Rain,0,2012-08-08 11:24:00
7:28 AM,75.2,75.2,100,30.01,3.0,Calm,Calm,-,N/A,Rain,Light Rain,0,2012-08-08 11:28:00
7:31 AM,75.2,75.2,100,30.01,2.5,Calm,Calm,-,N/A,Rain,Light Rain,0,2012-08-08 11:31:00
7:32 AM,75.2,75.2,100,30.02,2.0,Calm,Calm,-,N/A,Rain,Light Rain,0,2012-08-08 11:32:00
7:33 AM,75.2,75.2,100,30.02,1.2,Calm,Calm,-,N/A,Rain,Light Rain,0,2012-08-08 11:33:00
7:34 AM,73.4,73.4,100,30.02,1.0,Calm,Calm,-,N/A,Rain,Light Rain,0,2012-08-08 11:34:00
7:35 AM,73.4,73.4,100,30.02,0.8,Calm,Calm,-,N/A,Rain,Heavy Rain,0,2012-08-08 11:35:00
7:36 AM,73.4,73.4,100,30.02,0.5,Calm,Calm,-,N/A,Fog-Rain,Heavy Rain,0,2012-08-08 11:36:00
7:39 AM,73.4,73.4,100,30.01,0.5,Calm,Calm,-,N/A,Fog-Rain,Heavy Rain,0,2012-08-08 11:39:00
7:44 AM,75.2,75.2,100,30.01,0.8,Calm,Calm,-,N/A,Rain,Light Rain,0,2012-08-08 11:44:00
7:45 AM,75.2,75.2,100,30.01,1.0,Calm,Calm,-,N/A,Rain,Light Rain,0,2012-08-08 11:45:00
7:46 AM,75.2,75.2,100,30.01,1.2,Calm,Calm,-,N/A,Rain,Light Rain,0,2012-08-08 11:46:00
7:47 AM,75.2,75.2,100,30.01,2.0,Calm,Calm,-,N/A,Rain,Light Rain,0,2012-08-08 11:47:00
7:49 AM,75.2,75.2,100,30.01,3.0,Variable,3.5,-,N/A,Rain,Light Rain,0,2012-08-08 11:49:00
7:55 AM,74.5,74.5,100,30.01,5.0,Calm,Calm,-,0.19,Rain,Light Rain,0,2012-08-08 11:55:00
8:06 AM,75.2,75.2,100,30.01,5.0,Calm,Calm,-,N/A,Rain,Light Rain,0,2012-08-08 12:06:00
8:21 AM,75.2,75.2,100,30.01,3.0,Calm,Calm,-,N/A,Rain,Light Rain,0,2012-08-08 12:21:00
8:27 AM,75.2,75.2,100,30.01,4.0,Calm,Calm,-,N/A,Rain,Light Rain,0,2012-08-08 12:27:00
8:29 AM,75.2,75.2,100,30.01,4.0,Calm,Calm,-,N/A,Rain,Light Rain,0,2012-08-08 12:29:00
8:30 AM,75.2,75.2,100,30.01,4.0,Calm,Calm,-,N/A,Rain,Light Rain,0,2012-08-08 12:30:00
8:39 AM,75.2,75.2,100,30.02,5.0,NNE,3.5,-,N/A,,Partly Cloudy,30,2012-08-08 12:39:00
8:40 AM,75.2,75.2,100,-9999,5.0,NE,3.5,-,N/A,,Partly Cloudy,40,2012-08-08 12:40:00
8:55 AM,75.0,75.0,100,30.02,5.0,ESE,3.5,-,0.01,,Mostly Cloudy,120,2012-08-08 12:55:00
9:19 AM,75.2,75.2,100,30.02,6.0,Calm,Calm,-,N/A,,Overcast,0,2012-08-08 13:19:00
9:55 AM,75.4,75.0,99,30.02,7.0,Calm,Calm,-,N/A,,Overcast,0,2012-08-08 13:55:00
10:23 AM,75.2,75.2,100,30.02,6.0,Calm,Calm,-,N/A,,Overcast,0,2012-08-08 14:23:00
10:27 AM,75.2,75.2,100,30.02,6.0,Calm,Calm,-,N/A,,Overcast,0,2012-08-08 14:27:00
10:55 AM,76.6,74.1,92,30.03,7.0,Calm,Calm,-,N/A,,Overcast,0,2012-08-08 14:55:00
10:56 AM,77.0,73.4,89,30.03,7.0,Calm,Calm,-,N/A,,Overcast,0,2012-08-08 14:56:00
10:57 AM,77.0,73.4,89,30.03,7.0,SSW,4.6,-,N/A,,Overcast,210,2012-08-08 14:57:00
10:58 AM,77.0,73.4,89,30.03,7.0,SSW,6.9,-,N/A,,Overcast,200,2012-08-08 14:58:00
11:47 AM,78.8,73.4,83,30.04,9.0,Variable,3.5,-,N/A,,Overcast,0,2012-08-08 15:47:00
11:48 AM,78.8,73.4,83,30.04,9.0,Variable,3.5,-,N/A,,Overcast,0,2012-08-08 15:48:00
11:55 AM,78.6,74.1,86,30.04,9.0,Variable,3.5,-,N/A,,Overcast,0,2012-08-08 15:55:00
12:16 PM,78.8,73.4,83,30.03,8.0,Variable,4.6,-,N/A,,Overcast,0,2012-08-08 16:16:00
12:55 PM,81.0,72.9,76,30.02,10.0,West,4.6,-,N/A,,Overcast,270,2012-08-08 16:55:00
1:16 PM,82.4,73.4,74,30.01,10.0,West,6.9,-,N/A,,Mostly Cloudy,260,2012-08-08 17:16:00
1:24 PM,82.4,73.4,74,30.01,10.0,Variable,5.8,-,N/A,,Overcast,0,2012-08-08 17:24:00
1:30 PM,82.4,73.4,74,30.01,10.0,WNW,9.2,-,N/A,,Mostly Cloudy,300,2012-08-08 17:30:00
1:55 PM,82.9,73.4,73,30.00,10.0,WNW,6.9,-,N/A,,Overcast,290,2012-08-08 17:55:00
2:55 PM,84.6,73.8,70,29.98,10.0,NW,5.8,-,N/A,,Mostly Cloudy,320,2012-08-08 18:55:00
3:14 PM,86.0,73.4,66,29.99,10.0,North,5.8,-,N/A,,Mostly Cloudy,360,2012-08-08 19:14:00
3:19 PM,86.0,73.4,66,29.99,10.0,NNW,5.8,-,N/A,,Mostly Cloudy,330,2012-08-08 19:19:00
3:55 PM,86.5,73.2,64,29.97,9.0,Variable,3.5,-,N/A,,Mostly Cloudy,0,2012-08-08 19:55:00
4:55 PM,87.1,74.5,66,29.96,6.0,NE,5.8,-,N/A,,Haze,40,2012-08-08 20:55:00
5:55 PM,85.6,73.6,67,29.97,5.0,Calm,Calm,-,N/A,,Haze,0,2012-08-08 21:55:00
6:13 PM,86.0,75.2,70,29.97,2.5,ENE,3.5,-,N/A,,Haze,60,2012-08-08 22:13:00
6:16 PM,86.0,75.2,70,29.95,7.0,ENE,2.3,-,N/A,,Scattered Clouds,60,2012-08-08 22:16:00
6:39 PM,84.2,75.2,74,29.97,3.0,Calm,Calm,-,N/A,,Haze,0,2012-08-08 22:39:00
6:43 PM,84.2,75.2,74,29.97,2.5,Calm,Calm,-,N/A,,Haze,0,2012-08-08 22:43:00
6:55 PM,84.6,75.4,74,29.97,2.5,Calm,Calm,-,N/A,,Haze,0,2012-08-08 22:55:00
7:09 PM,84.2,77.0,79,29.96,3.0,SE,4.6,-,N/A,,Haze,140,2012-08-08 23:09:00
7:17 PM,84.2,77.0,79,29.96,2.5,ESE,4.6,-,N/A,,Haze,120,2012-08-08 23:17:00
7:35 PM,82.4,77.0,84,29.96,3.0,SE,4.6,-,N/A,,Haze,140,2012-08-08 23:35:00
7:55 PM,81.9,77.0,85,29.96,5.0,SSE,4.6,-,N/A,,Haze,160,2012-08-08 23:55:00
8:06 PM,80.6,77.0,89,29.95,5.0,SSE,4.6,-,N/A,,Clear,160,2012-08-09 00:06:00
8:46 PM,80.6,77.0,89,29.96,7.0,South,5.8,-,N/A,,Clear,170,2012-08-09 00:46:00
8:55 PM,79.5,77.2,93,29.96,6.0,South,5.8,-,N/A,,Clear,190,2012-08-09 00:55:00
9:55 PM,78.6,76.1,92,29.99,6.0,Variable,4.6,-,N/A,,Clear,0,2012-08-09 01:55:00
10:55 PM,77.9,75.7,93,29.99,5.0,Calm,Calm,-,N/A,,Clear,0,2012-08-09 02:55:00
11:00 PM,78.8,75.2,89,29.99,5.0,Calm,Calm,-,N/A,,Clear,0,2012-08-09 03:00:00
11:03 PM,77.0,75.2,94,29.99,5.0,Calm,Calm,-,N/A,,Clear,0,2012-08-09 03:03:00
11:24 PM,77.0,75.2,94,29.98,4.0,Calm,Calm,-,N/A,,Clear,0,2012-08-09 03:24:00
11:41 PM,77.0,75.2,94,29.98,4.0,Calm,Calm,-,N/A,,Clear,0,2012-08-09 03:41:00
11:53 PM,77.0,75.2,94,29.98,4.0,South,3.5,-,N/A,,Clear,180,2012-08-09 03:53:00
11:55 PM,76.5,75.7,98,29.98,4.0,South,3.5,-,N/A,,Clear,170,2012-08-09 03:55:00